EWG11A LDRI-EDDM

Flight info

Callsign EWG11A
Flight time 0h 57m
Altitude 34000
Route ALIVO DCT LUMUS DCT RASTA DCT REDBU Q112 NAPSA NAPSA4A
Aircraft A320/M-SDE3FGHIRWY/LB1

Departure

Time 2026-05-07 22:21
Airport Rijeka Airport (LDRI)

Arrival

Time 2026-05-07 23:18
Airport Munich Airport (EDDM)
Time Latitude Longitude Altitude Speed Heading
2026-05-07 21:47 45.21957 14.57101 269 ft 0 kts 103°
2026-05-07 22:14 45.21958 14.57096 269 ft 3 kts 103°
2026-05-07 22:14 45.21964 14.57059 269 ft 4 kts 104°
2026-05-07 22:14 45.21972 14.57023 268 ft 4 kts 117°
2026-05-07 22:15 45.21984 14.56999 268 ft 0 kts 142°
2026-05-07 22:17 45.21955 14.57029 268 ft 13 kts 143°
2026-05-07 22:17 45.21852 14.57139 268 ft 23 kts 143°
2026-05-07 22:18 45.21743 14.57201 267 ft 13 kts 180°
2026-05-07 22:18 45.21464 14.57290 265 ft 27 kts 142°
2026-05-07 22:18 45.21289 14.57478 262 ft 33 kts 143°
2026-05-07 22:19 45.21074 14.57701 262 ft 43 kts 144°
2026-05-07 22:19 45.20848 14.57934 267 ft 23 kts 144°
2026-05-07 22:19 45.20786 14.57961 268 ft 9 kts 164°
2026-05-07 22:19 45.20778 14.58009 268 ft 8 kts
2026-05-07 22:20 45.20825 14.57957 267 ft 15 kts 332°
2026-05-07 22:20 45.20843 14.57939 267 ft 0 kts 322°
2026-05-07 22:20 45.20844 14.57937 267 ft 3 kts 322°
2026-05-07 22:20 45.21073 14.57698 262 ft 82 kts 323°
2026-05-07 22:21 45.21709 14.57034 264 ft 142 kts 323°
2026-05-07 22:21 45.22563 14.56121 725 ft 154 kts 322°
2026-05-07 22:21 45.23297 14.55023 1424 ft 156 kts 306°
2026-05-07 22:21 45.23990 14.53709 1893 ft 174 kts 305°
2026-05-07 22:22 45.24705 14.52260 2398 ft 186 kts 304°
2026-05-07 22:22 45.25504 14.50711 2803 ft 204 kts 307°
2026-05-07 22:22 45.26410 14.49008 3139 ft 229 kts 299°
2026-05-07 22:22 45.26723 14.46740 3676 ft 246 kts 258°
2026-05-07 22:23 45.25916 14.44650 4625 ft 247 kts 221°
2026-05-07 22:23 45.24374 14.43597 5615 ft 252 kts 195°
2026-05-07 22:23 45.22614 14.43217 6482 ft 260 kts 187°
2026-05-07 22:23 45.20788 14.43014 6930 ft 266 kts 186°
2026-05-07 22:24 45.18949 14.42790 6997 ft 265 kts 188°
2026-05-07 22:24 45.17121 14.42483 7008 ft 264 kts 190°
2026-05-07 22:24 45.15307 14.42095 7011 ft 264 kts 192°
2026-05-07 22:24 45.13501 14.41646 7011 ft 263 kts 193°
2026-05-07 22:25 45.11702 14.41159 7012 ft 263 kts 193°
2026-05-07 22:25 45.09876 14.40770 7087 ft 275 kts 179°
2026-05-07 22:25 45.08050 14.41686 7822 ft 288 kts 144°
2026-05-07 22:25 45.06821 14.43928 8717 ft 296 kts 111°
2026-05-07 22:26 45.06580 14.46817 9580 ft 302 kts 81°
2026-05-07 22:26 45.07021 14.49746 10323 ft 312 kts 74°
2026-05-07 22:26 45.07666 14.52793 10630 ft 335 kts 71°
2026-05-07 22:26 45.08424 14.56009 11072 ft 351 kts 70°
2026-05-07 22:27 45.09208 14.59311 11789 ft 357 kts 71°
2026-05-07 22:27 45.09977 14.62679 12580 ft 361 kts 72°
2026-05-07 22:27 45.10734 14.66090 13349 ft 365 kts 70°
2026-05-07 22:27 45.11845 14.69279 14050 ft 369 kts 54°
2026-05-07 22:28 45.13559 14.71979 14700 ft 371 kts 38°
2026-05-07 22:28 45.15750 14.73893 15358 ft 371 kts 20°
2026-05-07 22:28 45.18232 14.74850 16026 ft 370 kts
2026-05-07 22:28 45.20803 14.74898 16697 ft 371 kts 355°
2026-05-07 22:29 45.23394 14.74799 17410 ft 374 kts 355°
2026-05-07 22:29 45.26004 14.74707 18100 ft 377 kts 355°
2026-05-07 22:29 45.28637 14.74623 18706 ft 380 kts 355°
2026-05-07 22:29 45.31294 14.74544 19279 ft 384 kts 355°
2026-05-07 22:30 45.33978 14.74468 19839 ft 387 kts 355°
2026-05-07 22:30 45.36685 14.74391 20380 ft 391 kts 354°
2026-05-07 22:30 45.39417 14.74310 20916 ft 394 kts 354°
2026-05-07 22:30 45.42170 14.74224 21447 ft 397 kts 354°
2026-05-07 22:31 45.44945 14.74133 21998 ft 400 kts 353°
2026-05-07 22:31 45.47744 14.74039 22518 ft 404 kts 353°
2026-05-07 22:31 45.50561 14.73894 22998 ft 405 kts 349°
2026-05-07 22:31 45.53326 14.73230 23464 ft 402 kts 340°
2026-05-07 22:32 45.55974 14.71981 23911 ft 401 kts 333°
2026-05-07 22:32 45.58591 14.70575 24345 ft 403 kts 333°
2026-05-07 22:32 45.61220 14.69159 24785 ft 405 kts 333°
2026-05-07 22:32 45.63866 14.67733 25248 ft 407 kts 333°
2026-05-07 22:33 45.66520 14.66303 25683 ft 409 kts 333°
2026-05-07 22:33 45.69191 14.64862 26079 ft 411 kts 333°
2026-05-07 22:33 45.71871 14.63413 26494 ft 413 kts 333°
2026-05-07 22:33 45.73652 14.62452 26784 ft 414 kts 333°
2026-05-07 22:34 45.76353 14.60995 27187 ft 416 kts 333°
2026-05-07 22:34 45.79069 14.59531 27583 ft 418 kts 333°
2026-05-07 22:34 45.81799 14.58057 27972 ft 420 kts 333°
2026-05-07 22:34 45.84539 14.56572 28362 ft 422 kts 333°
2026-05-07 22:35 45.87293 14.55074 28741 ft 425 kts 333°
2026-05-07 22:35 45.90063 14.53569 29101 ft 427 kts 333°
2026-05-07 22:35 45.92846 14.52059 29448 ft 429 kts 332°
2026-05-07 22:35 45.95645 14.50537 29805 ft 431 kts 332°
2026-05-07 22:36 45.98459 14.49004 30132 ft 433 kts 332°
2026-05-07 22:36 46.01285 14.47464 30410 ft 435 kts 332°
2026-05-07 22:36 46.04125 14.45918 30681 ft 437 kts 332°
2026-05-07 22:36 46.06978 14.44364 30968 ft 439 kts 332°
2026-05-07 22:37 46.09843 14.42799 31258 ft 441 kts 332°
2026-05-07 22:37 46.12711 14.41233 31644 ft 440 kts 332°
2026-05-07 22:37 46.15568 14.39670 32023 ft 439 kts 332°
2026-05-07 22:37 46.18421 14.38104 32394 ft 438 kts 332°
2026-05-07 22:38 46.21269 14.36539 32742 ft 438 kts 332°
2026-05-07 22:38 46.24117 14.34970 33098 ft 438 kts 332°
2026-05-07 22:38 46.26956 14.33403 33460 ft 438 kts 332°
2026-05-07 22:38 46.29802 14.31833 33836 ft 437 kts 332°
2026-05-07 22:39 46.32611 14.30285 34052 ft 438 kts 332°
2026-05-07 22:39 46.38252 14.27175 34090 ft 432 kts 332°
2026-05-07 22:40 46.43851 14.24063 34091 ft 431 kts 332°
2026-05-07 22:40 46.49447 14.20945 34108 ft 429 kts 332°
2026-05-07 22:41 46.55006 14.17858 34107 ft 427 kts 332°
2026-05-07 22:41 46.60423 14.14467 34106 ft 418 kts 323°
2026-05-07 22:42 46.65452 14.10221 34101 ft 418 kts 323°
2026-05-07 22:42 46.70487 14.05984 34085 ft 418 kts 323°
2026-05-07 22:43 46.75517 14.01738 34096 ft 418 kts 323°
2026-05-07 22:43 46.80541 13.97489 34092 ft 418 kts 323°
2026-05-07 22:44 46.85564 13.93228 34101 ft 417 kts 323°
2026-05-07 22:44 46.90579 13.88962 34106 ft 417 kts 323°
2026-05-07 22:45 46.95590 13.84694 34093 ft 416 kts 323°
2026-05-07 22:45 47.00598 13.80429 34104 ft 417 kts 323°
2026-05-07 22:46 47.05613 13.76136 34099 ft 418 kts 323°
2026-05-07 22:46 47.10604 13.71849 34093 ft 419 kts 323°
2026-05-07 22:47 47.15632 13.67527 34103 ft 419 kts 323°
2026-05-07 22:47 47.20656 13.63209 34128 ft 418 kts 324°
2026-05-07 22:48 47.25677 13.58885 34118 ft 418 kts 324°
2026-05-07 22:48 47.30713 13.54523 33958 ft 427 kts 324°
2026-05-07 22:48 47.33286 13.52284 33683 ft 431 kts 324°
2026-05-07 22:49 47.35868 13.50039 33417 ft 431 kts 324°
2026-05-07 22:49 47.38451 13.47800 33144 ft 430 kts 324°
2026-05-07 22:49 47.41023 13.45571 32877 ft 428 kts 324°
2026-05-07 22:49 47.43584 13.43348 32633 ft 426 kts 324°
2026-05-07 22:50 47.46135 13.41126 32363 ft 426 kts 324°
2026-05-07 22:50 47.48678 13.38895 32103 ft 423 kts 323°
2026-05-07 22:50 47.51037 13.36365 31696 ft 415 kts 316°
2026-05-07 22:50 47.53260 13.33678 31095 ft 411 kts 317°
2026-05-07 22:51 47.55459 13.31005 30506 ft 408 kts 317°
2026-05-07 22:51 47.57647 13.28347 29872 ft 406 kts 317°
2026-05-07 22:51 47.59818 13.25710 29291 ft 401 kts 317°
2026-05-07 22:51 47.61935 13.23141 28738 ft 396 kts 317°
2026-05-07 22:52 47.64055 13.20566 28183 ft 392 kts 317°
2026-05-07 22:52 47.66152 13.18016 27634 ft 388 kts 317°
2026-05-07 22:52 47.68225 13.15489 27111 ft 384 kts 317°
2026-05-07 22:52 47.70276 13.12979 26567 ft 381 kts 317°
2026-05-07 22:53 47.72304 13.10486 26035 ft 377 kts 317°
2026-05-07 22:53 47.74321 13.08013 25545 ft 374 kts 318°
2026-05-07 22:53 47.76319 13.05568 25039 ft 371 kts 318°
2026-05-07 22:53 47.78296 13.03143 24566 ft 367 kts 318°
2026-05-07 22:54 47.80258 13.00731 24095 ft 364 kts 318°
2026-05-07 22:54 47.82198 12.98343 23632 ft 361 kts 318°
2026-05-07 22:54 47.84124 12.95975 23141 ft 357 kts 318°
2026-05-07 22:54 47.86026 12.93639 22706 ft 352 kts 318°
2026-05-07 22:55 47.87904 12.91331 22272 ft 348 kts 318°
2026-05-07 22:55 47.89760 12.89044 21838 ft 345 kts 317°
2026-05-07 22:55 47.91598 12.86773 21402 ft 342 kts 317°
2026-05-07 22:55 47.93420 12.84519 20974 ft 339 kts 317°
2026-05-07 22:56 47.95144 12.82150 20523 ft 335 kts 309°
2026-05-07 22:56 47.96546 12.79406 20073 ft 331 kts 300°
2026-05-07 22:56 47.97718 12.76458 19607 ft 330 kts 299°
2026-05-07 22:56 47.98885 12.73519 19171 ft 329 kts 299°
2026-05-07 22:57 48.00051 12.70596 18720 ft 328 kts 299°
2026-05-07 22:57 48.01219 12.67675 18247 ft 327 kts 299°
2026-05-07 22:57 48.02379 12.64767 17775 ft 325 kts 299°
2026-05-07 22:57 48.03531 12.61863 17337 ft 323 kts 298°
2026-05-07 22:58 48.04673 12.58981 16898 ft 321 kts 298°
2026-05-07 22:58 48.05810 12.56113 16451 ft 320 kts 298°
2026-05-07 22:58 48.06947 12.53256 16015 ft 319 kts 299°
2026-05-07 22:58 48.08085 12.50412 15581 ft 318 kts 299°
2026-05-07 22:59 48.09221 12.47577 15141 ft 317 kts 299°
2026-05-07 22:59 48.10355 12.44747 14700 ft 317 kts 299°
2026-05-07 22:59 48.11488 12.41919 14266 ft 316 kts 298°
2026-05-07 22:59 48.12616 12.39095 13813 ft 316 kts 298°
2026-05-07 23:00 48.13708 12.36245 13336 ft 314 kts 294°
2026-05-07 23:00 48.14428 12.33192 12943 ft 309 kts 281°
2026-05-07 23:00 48.14721 12.29997 12801 ft 311 kts 275°
2026-05-07 23:00 48.14941 12.26770 12595 ft 311 kts 275°
2026-05-07 23:01 48.15170 12.23548 12398 ft 311 kts 275°
2026-05-07 23:01 48.15397 12.20388 12191 ft 309 kts 275°
2026-05-07 23:01 48.15627 12.17187 11989 ft 309 kts 275°
2026-05-07 23:01 48.15854 12.13998 11788 ft 308 kts 275°
2026-05-07 23:02 48.16076 12.10815 11584 ft 307 kts 275°
2026-05-07 23:02 48.16296 12.07640 11387 ft 306 kts 275°
2026-05-07 23:02 48.16513 12.04480 11182 ft 305 kts 275°
2026-05-07 23:02 48.16726 12.01319 10988 ft 305 kts 275°
2026-05-07 23:03 48.16937 11.98166 10783 ft 304 kts 275°
2026-05-07 23:03 48.17150 11.95013 10582 ft 303 kts 275°
2026-05-07 23:03 48.17359 11.91915 10407 ft 294 kts 275°
2026-05-07 23:03 48.17559 11.88924 10237 ft 285 kts 275°
2026-05-07 23:04 48.17753 11.85990 10071 ft 282 kts 275°
2026-05-07 23:04 48.17945 11.83072 9892 ft 281 kts 274°
2026-05-07 23:04 48.17920 11.80163 9697 ft 279 kts 263°
2026-05-07 23:04 48.17677 11.77276 9519 ft 279 kts 263°
2026-05-07 23:05 48.17441 11.74442 9329 ft 269 kts 263°
2026-05-07 23:05 48.17213 11.71706 9143 ft 260 kts 263°
2026-05-07 23:05 48.16993 11.69039 8960 ft 257 kts 263°
2026-05-07 23:05 48.16776 11.66411 8775 ft 250 kts 263°
2026-05-07 23:06 48.16561 11.63854 8592 ft 245 kts 263°
2026-05-07 23:06 48.16349 11.61328 8411 ft 244 kts 263°
2026-05-07 23:06 48.16138 11.58824 8232 ft 243 kts 263°
2026-05-07 23:06 48.15931 11.56359 8059 ft 235 kts 263°
2026-05-07 23:07 48.15727 11.53943 7885 ft 233 kts 263°
2026-05-07 23:07 48.15527 11.51569 7711 ft 232 kts 263°
2026-05-07 23:07 48.15323 11.49170 7534 ft 232 kts 263°
2026-05-07 23:07 48.15118 11.46776 7362 ft 232 kts 263°
2026-05-07 23:08 48.14912 11.44381 7186 ft 232 kts 263°
2026-05-07 23:08 48.14704 11.41955 7011 ft 231 kts 263°
2026-05-07 23:08 48.14502 11.39600 6842 ft 231 kts 263°
2026-05-07 23:08 48.14297 11.37213 6671 ft 230 kts 263°
2026-05-07 23:09 48.14351 11.34863 6490 ft 224 kts 282°
2026-05-07 23:09 48.14914 11.32729 6317 ft 219 kts 300°
2026-05-07 23:09 48.15889 11.31005 6128 ft 216 kts 318°
2026-05-07 23:09 48.17147 11.29840 5952 ft 214 kts 336°
2026-05-07 23:10 48.18582 11.29317 5778 ft 212 kts 354°
2026-05-07 23:10 48.20035 11.29486 5700 ft 210 kts 12°
2026-05-07 23:10 48.21395 11.30268 5669 ft 210 kts 22°
2026-05-07 23:10 48.22772 11.30977 5585 ft 209 kts 12°
2026-05-07 23:11 48.24194 11.31400 5504 ft 208 kts
2026-05-07 23:11 48.25613 11.31824 5422 ft 208 kts 13°
2026-05-07 23:11 48.26886 11.32827 5340 ft 210 kts 43°
2026-05-07 23:11 48.27753 11.34580 5261 ft 210 kts 57°
2026-05-07 23:12 48.28543 11.36430 5151 ft 210 kts 57°
2026-05-07 23:12 48.29327 11.38272 5074 ft 209 kts 57°
2026-05-07 23:12 48.30110 11.40114 4992 ft 208 kts 57°
2026-05-07 23:12 48.30888 11.41952 5003 ft 209 kts 57°
2026-05-07 23:13 48.31668 11.43795 5002 ft 209 kts 57°
2026-05-07 23:13 48.32447 11.45635 5016 ft 209 kts 57°
2026-05-07 23:13 48.33225 11.47468 5003 ft 205 kts 57°
2026-05-07 23:13 48.33963 11.49254 4996 ft 200 kts 63°
2026-05-07 23:14 48.34282 11.51260 4857 ft 198 kts 84°
2026-05-07 23:14 48.34437 11.53289 4621 ft 192 kts 84°
2026-05-07 23:14 48.34589 11.55249 4361 ft 186 kts 84°
2026-05-07 23:14 48.34738 11.57146 4135 ft 176 kts 84°
2026-05-07 23:15 48.34880 11.58945 3883 ft 171 kts 84°
2026-05-07 23:15 48.35018 11.60686 3650 ft 163 kts 84°
2026-05-07 23:15 48.35147 11.62314 3438 ft 150 kts 84°
2026-05-07 23:15 48.35266 11.63834 3246 ft 143 kts 84°
2026-05-07 23:16 48.35382 11.65305 3056 ft 140 kts 83°
2026-05-07 23:16 48.35495 11.66753 2863 ft 139 kts 83°
2026-05-07 23:16 48.35606 11.68169 2680 ft 138 kts 83°
2026-05-07 23:16 48.35719 11.69607 2483 ft 138 kts 83°
2026-05-07 23:17 48.35831 11.71043 2222 ft 139 kts 82°
2026-05-07 23:17 48.35943 11.72482 1937 ft 138 kts 82°
2026-05-07 23:17 48.36064 11.73907 1790 ft 138 kts 82°
2026-05-07 23:17 48.36165 11.75336 1693 ft 137 kts 81°
2026-05-07 23:18 48.36276 11.76757 1520 ft 137 kts 83°
2026-05-07 23:18 48.36379 11.78072 1460 ft 109 kts 83°
2026-05-07 23:18 48.36445 11.78941 1469 ft 62 kts 83°
2026-05-07 23:18 48.36434 11.79302 1461 ft 13 kts 112°
2026-05-07 23:19 48.36398 11.79441 1465 ft 12 kts 112°
2026-05-07 23:19 48.36396 11.79448 1466 ft 4 kts 112°
2026-05-07 23:19 48.36380 11.79503 1460 ft 9 kts 113°
2026-05-07 23:19 48.36355 11.79593 1465 ft 9 kts 113°
2026-05-07 23:20 48.36330 11.79683 1463 ft 10 kts 113°
2026-05-07 23:20 48.36306 11.79758 1462 ft 7 kts 121°
2026-05-07 23:20 48.36290 11.79783 1462 ft 0 kts 146°
2026-05-07 23:20 48.36255 11.79784 1466 ft 9 kts 204°
2026-05-07 23:21 48.36231 11.79684 1465 ft 12 kts 264°
2026-05-07 23:21 48.36221 11.79550 1457 ft 11 kts 258°
2026-05-07 23:21 48.36168 11.79466 1459 ft 13 kts 178°
2026-05-07 23:21 48.36082 11.79484 1467 ft 13 kts 174°
2026-05-07 23:22 48.35973 11.79501 1464 ft 18 kts 174°
2026-05-07 23:22 48.35839 11.79524 1464 ft 14 kts 173°
2026-05-07 23:22 48.35749 11.79540 1466 ft 15 kts 173°
2026-05-07 23:22 48.35695 11.79550 1467 ft 4 kts 173°
2026-05-07 23:23 48.35670 11.79555 1461 ft 3 kts 173°
2026-05-07 23:23 48.35650 11.79559 1467 ft 2 kts 173°
2026-05-07 23:23 48.35640 11.79586 1464 ft 5 kts 89°
2026-05-07 23:23 48.35646 11.79637 1458 ft 4 kts 79°
2026-05-07 23:24 48.35654 11.79694 1467 ft 6 kts 78°
2026-05-07 23:24 48.35656 11.79707 1467 ft 1 kts 82°
2026-05-07 23:24 48.35656 11.79716 1467 ft 0 kts 83°
2026-05-07 23:24 48.35657 11.79719 1465 ft 0 kts 83°